Theta_e
325 323 331 333 330 329 327 327 310 316 316 307 304 302 298 310 312 312 312 316 312 318 321 324 322 322 323 323 326 327 328 325 327 311 316 328 345 347 347 346 346 346 347 349 350 351 351 353 353 353 354 354 354 354 354 354 354 354 354 353 353 354 354 353 352 351 351 350 350 350 349 348 347 346 345 343 342 342 344 347 349 349 349 348 348 348 348 347 347 347 347 348 349 349 349 348 348
322 321 321 329 329 324 313 326 313 305 309 302 301 302 302 307 311 309 311 313 314 317 320 321 321 326 328 328 331 330 328 330 332 330 334 342 346 346 348 347 346 345 347 349 350 350 351 352 354 354 354 354 354 354 354 354 354 354 354 353 353 354 353 352 352 352 352 352 349 349 347 347 347 346 345 344 344 343 345 347 348 349 349 349 350 348 347 346 347 347 347 347 348 348 347 346 346
322 322 321 320 321 317 314 314 300 298 297 293 297 300 307 306 305 307 315 314 315 319 321 321 322 322 324 327 322 325 321 335 334 335 333 344 339 341 345 347 346 346 347 348 348 349 350 352 354 354 354 354 354 354 354 353 354 353 353 353 353 353 353 353 352 352 352 352 350 350 350 348 348 346 344 343 343 345 346 351 351 351 350 350 349 347 346 346 347 347 347 348 348 347 346 346 346
326 325 320 321 313 316 308 307 304 299 295 295 296 302 306 305 306 309 311 311 312 311 316 319 321 327 324 322 324 329 328 331 335 334 331 331 339 343 346 347 347 346 346 346 347 349 350 353 354 354 354 354 353 354 353 353 353 353 353 353 353 353 352 352 353 352 352 352 352 351 349 348 349 348 346 345 345 347 350 350 350 350 350 349 348 347 346 346 347 347 347 347 347 347 346 346 346
326 325 324 320 313 308 310 304 299 299 294 296 296 302 306 308 308 310 309 311 311 311 315 323 323 329 331 326 329 321 326 334 335 337 333 340 346 346 346 346 345 345 344 346 347 350 351 354 354 354 354 353 353 353 353 352 353 353 352 352 352 352 352 352 352 352 352 352 351 349 347 346 346 347 347 346 346 348 348 348 348 349 348 348 347 347 346 346 346 347 347 346 346 346 346 345 345
315 315 321 317 309 312 306 299 297 296 300 302 300 302 307 310 309 310 310 311 312 311 316 323 321 324 325 326 329 324 332 327 336 336 335 341 345 346 345 346 345 344 344 345 348 350 351 354 354 354 354 353 353 353 353 352 352 352 352 352 353 352 353 352 352 352 351 351 350 348 346 345 345 345 347 347 347 348 348 348 347 348 348 347 347 346 346 346 347 346 346 345 344 346 345 345 345
311 310 311 310 310 316 300 296 296 298 302 306 303 305 308 311 311 310 309 308 310 311 321 325 326 325 320 325 329 331 337 338 336 334 336 344 346 346 345 344 344 343 345 346 348 349 352 354 354 354 354 353 353 353 353 352 352 352 352 352 352 352 352 352 352 351 351 351 350 349 348 347 346 345 345 346 346 347 348 347 348 347 348 348 347 348 348 347 347 346 345 344 344 343 345 345 346
316 308 309 304 301 304 297 296 297 298 301 306 307 307 309 311 311 311 308 307 306 308 316 326 329 325 324 332 320 333 337 340 338 339 339 343 345 345 345 344 343 343 345 346 348 350 355 353 354 353 354 353 353 352 352 352 352 352 352 352 352 352 352 351 351 351 350 350 350 349 348 347 346 345 344 345 345 346 347 347 347 347 347 348 348 347 347 347 347 346 344 345 344 345 345 345 345
310 310 315 305 299 303 295 295 296 301 303 306 308 311 319 312 312 310 310 309 310 309 323 328 327 320 325 327 326 332 336 339 339 343 340 341 342 344 344 344 344 343 344 346 349 351 352 354 354 353 353 353 353 352 353 353 352 352 352 352 351 351 351 351 351 350 350 349 348 347 346 345 345 344 343 344 344 345 346 346 347 347 347 347 347 347 347 348 346 345 345 344 345 344 345 346 347
307 308 301 302 300 295 294 294 295 300 302 306 307 308 310 312 311 310 309 307 308 310 316 329 329 324 329 325 330 337 332 339 339 337 338 339 341 344 345 346 346 345 345 348 349 350 350 355 354 353 353 353 352 352 352 352 352 352 352 351 351 351 350 350 349 349 348 347 346 346 345 345 343 343 342 343 343 344 345 346 346 346 346 347 346 347 347 346 345 345 344 345 345 347 346 347 346
303 308 309 301 299 293 293 293 297 301 303 306 308 310 311 312 311 309 309 309 310 309 318 331 327 327 330 330 330 341 338 339 337 334 337 338 344 345 345 347 347 346 345 347 348 349 350 351 355 353 353 353 353 352 352 352 352 352 351 351 351 350 349 349 348 347 347 346 346 345 344 343 343 342 342 342 343 343 344 345 345 346 346 346 346 346 346 346 345 345 344 346 346 345 347 345 346
302 303 304 296 295 294 294 294 297 300 304 305 305 309 311 312 311 309 308 306 310 310 309 324 327 334 328 329 329 334 337 337 337 337 337 342 345 347 346 345 345 345 345 346 348 349 350 351 351 354 353 353 352 352 352 351 351 351 350 349 350 349 348 348 348 347 346 346 345 344 343 343 342 342 341 341 342 343 343 344 344 345 345 346 346 346 346 345 346 344 346 345 344 345 344 346 346
301 303 299 297 296 297 297 297 298 302 302 303 305 310 312 311 310 310 310 309 309 309 317 328 335 335 326 328 333 335 335 335 336 337 339 340 343 347 346 345 345 345 346 347 347 348 349 350 351 351 351 353 352 351 352 351 350 350 349 349 348 348 347 347 347 346 346 345 345 344 343 342 342 341 341 341 342 341 342 342 343 344 344 345 345 345 345 346 345 345 345 344 344 345 346 345 346
303 303 302 298 302 299 299 298 299 298 299 303 308 311 312 310 312 312 309 307 309 315 323 332 335 335 329 330 330 331 333 335 336 337 337 339 342 345 345 345 345 344 345 345 344 346 348 349 350 350 350 349 349 351 351 350 350 349 349 348 347 347 347 346 345 345 345 344 344 343 341 341 341 341 341 341 341 341 341 342 343 344 344 345 345 346 346 345 345 344 345 344 345 344 345 345 345
303 305 303 301 299 299 301 297 298 298 299 305 308 310 311 314 314 313 310 307 309 314 321 338 336 331 323 327 326 330 333 335 336 336 339 340 342 343 344 345 344 344 343 343 344 345 347 348 348 349 349 349 349 348 348 349 349 348 348 348 347 346 346 345 344 344 343 343 342 342 341 341 340 341 340 341 341 341 341 342 343 343 344 344 345 345 345 344 345 343 343 344 344 345 345 344 345
306 304 302 298 297 298 299 300 301 300 300 306 309 311 310 312 315 312 313 312 313 317 317 315 324 322 333 331 333 335 335 335 335 337 339 340 340 341 342 342 342 341 340 342 343 344 346 347 347 348 348 348 348 347 347 347 348 348 347 347 346 346 345 344 343 342 342 342 342 341 341 340 340 338 341 340 341 342 342 341 342 343 343 343 344 344 344 344 343 343 343 343 344 344 344 345 345
308 305 297 297 295 298 299 299 301 297 303 306 310 310 307 309 314 315 318 315 311 313 321 322 321 330 329 333 338 336 335 336 338 339 339 337 337 336 337 338 338 338 339 339 339 343 345 346 346 346 346 347 346 346 346 345 346 348 347 347 346 344 343 342 341 341 341 341 341 341 341 337 335 336 336 338 342 339 342 342 343 344 344 344 344 343 343 343 343 343 343 344 344 344 345 346 346
305 299 296 294 298 297 302 301 303 306 304 306 308 310 309 307 312 314 316 313 312 313 317 323 329 331 338 339 338 337 335 334 338 337 336 335 335 333 332 333 337 335 336 336 337 341 344 345 345 345 345 345 346 346 346 345 346 346 342 341 340 341 342 342 340 338 342 335 341 339 335 339 336 334 336 343 338 341 341 343 344 343 344 344 344 343 343 343 343 344 344 344 345 346 346 342 342
301 297 297 295 298 301 305 306 307 305 305 307 309 311 309 309 310 313 310 310 310 309 315 323 329 335 337 337 336 335 334 335 337 336 335 334 333 332 331 333 336 336 335 335 336 341 343 344 344 344 345 345 345 345 345 344 343 342 341 339 340 342 343 343 338 341 336 337 337 337 338 337 337 337 338 341 342 344 342 343 344 344 343 344 343 343 344 344 344 344 345 345 347 347 344 340 340
304 299 296 297 303 303 306 307 307 309 309 307 308 310 310 310 311 314 310 309 310 306 308 323 329 330 333 334 334 333 332 335 337 336 335 334 334 333 332 333 335 336 336 336 336 341 343 343 343 343 344 344 345 344 343 342 341 340 339 338 337 337 338 341 338 338 339 338 340 339 339 341 340 336 344 345 348 341 340 343 345 344 343 343 344 343 345 345 346 347 347 348 348 346 341 340 336
303 300 297 299 303 302 305 308 308 309 309 309 309 310 309 311 312 312 311 309 308 307 309 312 329 331 333 334 333 333 333 334 336 336 335 335 335 335 334 335 335 336 337 337 340 340 341 342 342 343 344 345 344 343 342 341 341 339 338 336 335 335 336 336 337 338 336 339 340 341 342 343 344 339 340 341 337 338 337 337 337 335 337 336 344 337 338 341 343 343 344 345 344 343 340 336 336
303 300 302 303 303 302 306 308 309 308 309 307 309 307 307 313 312 311 311 306 303 307 310 312 329 334 334 333 333 334 334 334 335 336 335 335 335 335 337 335 338 338 338 336 337 340 341 342 342 343 344 344 344 343 341 341 341 337 336 334 334 334 336 336 337 337 336 337 341 343 345 345 345 344 341 339 335 337 334 333 335 335 335 337 341 338 339 342 341 342 341 344 341 340 338 340 340
297 301 302 304 305 303 306 307 308 309 308 308 307 309 311 310 310 311 310 308 309 314 313 314 326 334 336 336 335 333 334 334 335 335 335 336 336 336 336 336 337 336 337 335 337 338 341 341 341 343 342 342 343 343 341 342 338 336 335 334 333 332 334 336 337 336 337 337 343 344 343 342 342 337 336 338 340 342 337 338 339 338 339 342 346 341 342 341 342 342 342 341 341 342 342 342 341
301 298 302 303 305 304 307 306 307 307 308 307 309 312 309 309 306 311 309 312 313 314 314 313 326 331 334 334 335 334 334 334 336 338 338 340 337 336 337 337 338 337 336 336 337 338 340 340 341 342 341 341 342 342 340 340 337 336 335 338 335 334 334 335 336 336 340 341 343 345 346 342 340 335 336 339 341 341 342 343 342 343 342 341 342 341 339 340 340 342 342 342 341 340 341 339 341
300 299 302 303 305 305 306 307 307 307 306 309 309 307 308 310 309 310 308 310 311 312 311 313 327 332 332 332 334 335 335 335 336 339 340 340 339 339 339 338 338 337 335 335 336 337 340 341 341 341 341 341 341 342 340 338 337 336 336 335 332 337 332 334 336 338 340 341 343 346 346 339 337 337 337 338 339 339 341 342 342 341 340 340 341 339 338 338 340 341 340 339 339 338 338 338 339
301 301 303 303 304 305 306 306 306 307 308 308 306 306 309 310 312 309 310 310 310 311 312 313 327 329 329 330 334 335 336 336 338 340 340 340 339 338 337 337 338 336 336 336 336 336 339 341 340 340 340 341 341 339 337 336 336 335 334 334 333 337 333 336 338 338 339 341 342 345 343 338 339 338 337 338 336 336 339 339 338 338 339 339 340 338 340 339 338 339 340 340 339 338 337 337 337
303 302 303 303 303 304 306 305 306 307 307 308 305 305 306 311 310 305 312 312 310 311 311 312 323 323 327 331 334 336 337 338 339 341 341 340 339 337 337 338 337 337 337 335 335 336 338 339 340 341 340 342 341 337 336 337 335 333 333 334 335 335 335 337 340 338 339 341 342 343 338 340 339 338 338 337 337 337 337 337 338 338 338 337 338 338 340 340 339 337 336 338 336 336 338 335 334
302 302 302 302 303 304 305 305 306 307 305 307 307 305 306 308 309 306 309 314 314 310 310 311 316 318 325 331 334 335 338 339 340 341 340 337 336 337 336 336 336 336 336 335 336 336 337 339 340 340 340 341 340 337 337 337 335 334 333 333 333 334 337 336 339 339 341 340 343 340 338 339 340 339 338 337 337 337 336 337 337 337 338 339 339 339 339 339 338 337 337 338 339 338 333 331 330
301 302 297 300 302 301 303 303 304 306 304 307 307 304 302 304 303 308 309 312 314 313 310 310 310 318 325 329 330 333 338 340 341 340 341 338 338 339 337 338 337 336 337 337 336 337 336 338 339 339 341 341 339 337 336 337 335 336 333 332 336 337 340 337 337 339 340 343 340 338 339 340 339 338 338 339 340 336 337 337 337 338 338 338 340 342 341 339 338 335 335 339 339 332 332 329 329
301 299 298 297 298 298 302 304 305 304 305 307 306 294 298 302 305 307 313 313 315 312 310 310 309 314 322 326 328 335 340 341 340 341 341 339 339 339 337 338 339 337 336 336 337 337 338 339 340 341 341 341 339 338 337 336 335 334 332 332 337 337 336 336 337 339 343 342 340 340 339 340 340 339 338 338 337 337 338 339 337 336 335 337 339 340 340 339 336 333 334 337 342 332 330 327 325
294 297 298 293 293 293 301 303 303 301 306 305 305 294 297 301 305 307 312 315 314 309 309 307 310 316 323 328 332 338 340 341 341 341 341 340 340 340 339 339 338 337 337 336 336 337 339 339 342 342 341 341 343 339 336 337 335 336 329 333 336 337 338 336 338 341 341 341 340 340 340 341 339 340 339 337 337 338 338 337 336 335 336 337 338 338 338 337 335 335 334 333 334 328 328 329 325
296 291 289 293 291 294 299 303 303 299 303 306 303 295 296 299 303 307 309 312 314 309 307 307 311 320 326 330 333 337 339 341 342 341 341 340 340 340 340 339 338 337 336 337 338 338 338 338 341 341 340 339 340 339 336 338 336 336 333 342 337 337 336 339 339 339 341 341 340 339 339 340 340 340 339 337 335 336 338 336 336 336 338 337 339 336 336 335 335 335 334 332 330 326 325 322 322
294 291 289 290 292 293 296 301 303 303 303 304 302 295 298 299 303 305 308 311 314 310 308 306 311 315 325 328 331 335 337 338 340 341 341 340 340 340 340 340 338 337 338 338 338 337 338 338 340 340 339 339 340 339 339 337 338 338 338 339 340 339 339 338 339 341 341 341 340 340 340 341 339 339 338 338 337 336 336 336 336 337 339 339 338 335 335 335 336 336 332 332 329 327 323 322 320
289 292 289 292 291 293 291 299 302 302 302 299 301 298 298 300 303 305 308 309 312 308 307 308 312 312 316 324 328 333 336 337 337 339 340 340 340 341 341 341 339 338 339 339 339 338 338 338 339 340 339 339 340 339 339 338 337 337 336 336 339 337 337 337 339 340 341 342 342 341 341 340 338 337 338 339 337 338 337 335 337 338 336 337 335 335 334 336 333 333 331 330 329 327 321 319 318
287 288 288 290 293 294 293 293 299 301 301 298 299 298 299 301 301 304 307 308 309 307 307 309 310 310 310 314 326 329 335 337 338 339 340 339 340 340 340 340 338 339 339 340 339 339 339 338 339 340 340 339 340 339 340 338 336 336 336 334 334 335 335 337 340 341 341 341 341 341 340 338 338 337 337 338 338 337 335 336 336 336 334 334 334 333 333 333 331 331 330 327 327 324 321 320 319
291 291 290 290 290 291 293 297 300 301 298 297 297 296 298 300 301 303 305 308 307 307 308 308 310 310 310 310 322 327 333 336 339 339 339 339 339 339 339 339 338 339 339 340 339 339 338 338 339 339 340 339 340 340 338 335 334 333 333 333 333 334 335 337 339 339 340 339 340 340 338 337 337 338 338 337 337 335 335 335 334 335 334 334 333 333 332 331 329 329 328 327 324 323 321 318 316
295 294 292 291 291 293 296 297 300 301 298 297 297 298 298 299 301 303 304 305 307 306 305 308 309 309 310 310 314 325 330 335 337 337 337 338 339 339 339 338 338 338 340 339 339 338 339 337 338 337 339 340 340 338 336 334 332 332 330 331 331 332 335 337 337 337 339 339 338 338 338 337 337 338 338 337 336 338 335 334 333 334 333 334 333 332 331 332 331 331 327 327 322 317 316 316 316
293 292 292 290 292 290 295 297 300 302 297 294 298 297 297 299 299 301 303 303 302 305 305 307 307 309 310 310 310 323 328 332 332 333 335 337 338 338 338 338 338 336 338 339 338 338 339 338 338 338 339 340 340 338 337 335 334 333 331 331 331 332 333 334 335 336 338 339 339 338 339 338 338 337 337 335 336 335 333 332 333 333 332 331 330 331 330 334 328 329 327 325 325 318 316 317 317
292 291 291 290 291 294 296 298 300 300 298 294 296 296 297 298 300 301 302 302 303 304 307 309 308 308 309 310 310 316 328 329 332 333 334 335 337 337 337 337 339 338 338 338 339 338 338 337 338 338 339 339 339 339 337 335 334 335 333 332 333 332 334 335 336 337 338 337 337 338 338 336 337 338 338 337 336 336 335 333 330 330 331 332 329 328 327 326 327 328 326 323 323 321 319 319 317
290 290 289 287 292 291 288 295 298 299 298 295 296 295 296 299 300 301 303 303 304 306 310 310 310 309 309 311 314 326 327 328 329 330 331 333 335 336 336 336 338 338 338 338 339 338 339 337 337 338 339 339 339 339 338 337 336 335 335 335 335 333 332 335 336 336 336 335 333 334 335 335 334 333 334 334 333 332 331 330 331 329 329 331 330 326 325 326 326 326 325 326 321 317 317 317 318
290 290 290 290 291 292 292 292 296 299 299 299 297 295 293 296 297 298 302 304 304 305 309 310 310 311 311 312 315 328 327 328 329 329 330 331 333 334 335 335 338 338 338 338 339 339 339 337 338 339 339 338 339 339 338 337 336 334 334 334 334 332 332 332 332 332 333 333 332 331 331 331 331 331 331 331 331 330 330 330 329 329 328 328 328 329 326 324 324 325 325 322 320 318 317 317 319
288 291 291 292 293 293 293 294 294 292 292 297 295 287 289 293 296 298 299 301 302 304 305 307 308 308 310 310 311 326 328 330 329 329 330 332 333 334 335 335 336 338 337 339 340 340 339 338 339 339 339 338 338 338 338 336 334 332 331 330 328 328 327 329 329 330 330 330 329 328 329 330 330 329 330 330 331 329 327 326 326 328 326 325 326 324 324 323 322 322 322 319 319 321 319 317 312
286 288 294 293 293 293 293 293 292 287 286 294 297 288 283 291 294 296 298 299 299 302 302 304 307 309 308 309 310 325 327 328 330 330 332 332 333 334 334 334 336 337 338 340 340 340 340 338 338 339 338 338 338 338 336 335 333 332 331 331 330 329 328 328 330 331 330 330 329 327 327 328 329 328 327 327 327 328 327 327 327 326 325 324 327 322 321 318 318 319 321 317 317 319 317 311 310
285 293 294 293 292 291 292 292 292 289 294 296 296 293 286 285 292 298 299 297 299 300 300 302 305 308 309 309 310 321 327 328 328 330 332 333 334 334 333 335 335 337 338 339 340 339 339 337 337 338 338 338 338 338 336 335 333 332 331 331 330 329 328 328 329 329 330 330 328 326 326 326 327 328 325 324 325 326 326 324 323 323 322 324 323 319 318 318 319 320 319 317 316 316 312 310 308
289 293 294 292 292 292 293 292 290 291 291 286 292 295 288 286 290 298 299 296 296 298 300 301 305 308 309 309 310 318 327 328 329 331 332 332 333 334 335 335 336 338 338 338 338 338 338 336 337 338 337 337 337 337 336 335 334 333 332 331 330 329 329 330 330 330 330 330 327 325 325 325 324 324 324 324 324 325 326 323 321 320 322 320 320 318 317 318 317 315 314 313 313 313 314 311 307
292 295 295 295 295 294 293 291 291 290 288 284 289 293 286 286 291 293 297 297 296 297 300 301 304 308 309 309 309 318 326 328 331 333 333 334 334 335 336 336 336 338 338 339 338 337 336 336 336 337 335 337 337 336 336 335 334 334 332 331 330 329 330 330 330 329 329 329 326 325 325 323 322 322 323 323 323 323 323 321 316 315 317 318 318 315 314 314 314 314 314 313 312 311 311 312 310
296 295 292 292 293 292 293 292 291 288 282 285 291 293 290 284 290 292 292 295 298 298 299 301 304 309 310 310 309 325 326 329 332 333 334 334 335 335 335 335 336 337 338 338 337 337 336 336 335 336 335 337 337 336 335 334 334 334 332 332 331 330 329 329 328 328 328 327 325 325 323 321 321 321 321 322 321 321 320 319 315 315 316 319 316 314 313 312 313 313 313 312 311 310 308 308 308
294 291 289 288 288 291 289 289 290 282 280 288 292 292 292 283 287 294 298 299 299 300 298 300 301 305 310 310 312 326 329 331 333 333 333 334 333 334 334 334 334 335 337 337 337 336 336 336 335 335 335 336 336 336 335 334 334 333 333 333 331 330 329 328 327 327 328 326 325 324 322 320 320 320 319 319 318 318 318 317 317 314 313 311 311 312 312 312 312 311 311 311 311 311 311 310 307
292 290 288 283 280 283 281 284 280 280 280 288 292 293 289 288 289 294 298 300 300 300 301 301 302 303 308 310 313 324 329 331 331 332 332 332 332 332 332 333 333 334 335 336 336 335 336 335 335 335 334 335 335 336 335 334 334 333 333 333 330 330 329 329 328 327 328 327 325 322 320 319 319 319 319 318 316 317 317 314 313 311 311 311 310 310 310 311 311 311 311 310 310 309 308 307 306
289 287 286 283 279 279 277 281 282 283 287 292 291 293 287 290 293 297 297 300 302 301 301 301 301 303 306 310 313 321 325 328 330 331 332 332 332 332 332 332 333 334 335 335 335 335 335 335 335 335 334 335 335 335 335 333 333 334 334 331 330 329 329 328 328 327 327 327 325 322 320 319 318 318 319 317 316 318 317 314 313 311 311 311 310 310 310 310 310 310 310 309 309 308 307 306 305
289 291 289 286 285 282 278 280 278 280 283 287 293 288 283 286 285 299 299 299 300 301 302 302 303 304 309 312 312 319 320 323 327 330 332 332 332 332 332 332 333 334 334 335 335 335 335 334 334 334 334 334 335 335 334 333 333 334 334 331 330 329 329 328 328 327 326 325 324 322 321 321 320 319 318 317 318 316 314 312 311 309 309 309 310 310 311 309 310 310 310 309 309 308 307 307 305
291 292 292 287 285 289 282 284 284 284 283 283 286 285 289 289 295 300 299 300 301 301 302 303 304 303 310 311 312 314 318 319 322 326 331 332 332 332 332 332 333 334 334 335 335 335 334 334 334 335 334 334 334 334 334 333 333 334 334 331 330 330 329 329 327 327 326 326 324 323 322 321 321 320 317 317 315 313 312 312 311 310 309 309 309 309 309 308 308 308 307 307 307 309 306 306 305
288 290 285 288 294 292 285 286 292 286 284 281 286 289 291 295 296 297 299 298 299 301 301 302 303 303 309 310 311 312 316 318 318 324 331 332 332 332 333 332 333 334 334 334 334 335 334 334 334 335 335 335 334 334 333 334 333 333 333 332 331 330 329 328 327 326 325 325 325 323 322 322 320 317 317 316 314 312 311 310 310 309 309 309 308 308 307 307 306 306 305 305 306 306 306 304 304
291 284 288 294 297 295 288 281 283 281 279 281 288 284 285 288 282 294 296 296 297 298 299 301 302 303 307 311 311 312 316 317 319 327 331 332 332 332 333 333 333 334 334 334 334 335 335 335 335 335 334 334 333 333 333 334 333 333 333 332 331 331 329 328 327 326 326 325 324 323 322 320 318 318 317 316 313 312 312 314 309 308 308 308 307 307 307 307 306 305 305 305 305 305 305 305 305
293 290 297 288 283 283 288 284 279 279 279 280 285 287 286 287 288 292 293 295 296 298 299 300 301 302 306 310 312 312 316 317 322 327 329 331 331 332 332 333 334 334 334 334 335 334 334 334 335 335 334 334 333 334 334 334 334 334 334 332 331 331 331 329 328 327 326 325 323 322 320 319 318 317 316 313 312 311 309 308 308 307 307 306 306 307 307 306 305 304 304 304 304 304 302 302 303
296 297 292 295 291 288 284 286 290 287 280 281 281 286 282 291 290 293 294 296 297 298 299 300 301 305 308 310 312 313 314 319 326 328 330 331 332 332 332 332 333 333 333 334 334 334 333 333 334 334 334 334 334 333 334 334 334 333 333 332 331 332 331 330 328 327 325 324 322 321 319 317 317 316 314 313 311 309 308 308 307 307 306 306 306 306 306 305 304 304 304 303 303 303 303 303 303
289 289 288 291 291 298 292 293 288 283 281 280 279 280 284 290 295 296 296 297 299 299 299 301 303 308 310 312 313 314 314 320 326 328 330 331 331 332 332 333 334 334 334 334 333 333 333 333 333 334 333 333 333 334 334 334 333 333 332 331 330 330 329 329 328 326 324 322 321 320 319 318 317 314 313 311 310 308 308 308 307 307 306 306 305 305 305 304 304 304 303 303 303 303 302 302 303
291 289 287 289 288 286 283 282 292 289 285 279 280 278 286 294 303 301 298 299 300 301 301 304 304 310 311 312 313 313 314 320 326 329 330 331 331 332 332 333 333 333 333 333 333 332 332 332 333 333 334 333 334 334 334 334 334 333 332 331 330 329 329 328 326 324 322 321 321 320 318 317 314 314 313 311 309 309 307 307 306 306 305 306 305 305 305 304 304 303 303 304 303 302 301 301 300
Wind_Speed
10 3 3 4 4 4 3 2 2 1 0 3 4 4 2 3 5 7 10 10 8 5 9 9 3 7 8 8 12 8 8 6 4 2 3 1 11 15 19 19 16 16 17 12 10 10 11 15 16 17 17 18 17 16 16 16 14 13 13 14 14 14 13 13 13 12 12 12 12 11 11 10 10 10 10 9 8 7 7 13 14 13 13 13 13 13 13 12 13 12 12 11 10 10 9 8 8
7 4 1 5 5 4 3 5 1 2 1 4 8 3 2 1 6 7 11 12 7 4 10 10 5 14 19 19 15 6 12 9 6 4 4 13 13 13 17 18 17 18 15 12 10 9 9 11 16 16 17 18 17 16 16 16 15 14 14 14 14 13 13 13 12 12 11 10 11 12 11 10 10 10 9 8 8 5 2 11 14 14 13 13 13 13 12 12 12 12 11 11 9 9 8 8 8
10 5 2 6 2 3 2 2 2 3 3 5 7 4 0 13 4 1 11 6 6 13 9 14 17 11 12 13 11 11 2 7 10 5 8 14 15 8 16 16 16 17 17 11 11 9 8 10 15 16 17 17 17 17 16 16 15 14 14 14 14 14 13 13 13 12 11 11 11 13 12 11 10 10 9 7 7 4 3 13 15 13 12 12 13 12 12 12 11 10 9 9 9 8 8 8 8
7 3 2 1 1 3 2 1 2 3 6 6 6 5 8 3 1 7 8 11 9 7 8 7 5 1 15 12 11 10 6 5 6 6 4 6 10 14 15 17 16 14 12 12 11 10 8 12 15 17 17 17 17 17 16 16 15 15 14 14 14 14 13 14 14 12 12 11 13 13 12 11 10 9 9 8 7 5 6 11 14 14 12 12 12 11 10 10 10 8 8 7 7 8 8 8 8
2 4 7 2 1 2 1 1 3 1 6 2 5 6 4 6 5 5 3 4 3 6 12 9 7 8 12 9 3 3 4 9 8 4 5 11 16 16 16 17 15 14 13 13 12 10 10 18 15 15 17 18 17 17 16 16 15 15 14 14 14 14 13 14 13 13 13 13 13 13 12 10 9 9 9 9 8 9 10 10 12 12 12 11 11 9 8 8 8 8 7 7 7 8 8 8 8
6 5 5 4 1 1 2 2 5 5 9 4 6 2 7 16 12 3 1 7 4 7 11 14 9 5 6 5 3 3 2 2 8 4 8 13 18 18 17 16 15 13 13 12 11 9 10 17 15 16 16 18 17 17 16 15 15 15 14 14 14 14 14 13 14 14 13 13 13 12 12 11 10 8 8 9 8 8 9 9 9 10 11 10 11 9 9 8 7 6 6 7 7 8 7 7 7
3 5 2 1 2 1 2 5 7 6 12 7 5 8 5 15 8 5 2 5 4 5 14 12 15 13 8 1 6 3 2 5 6 7 8 18 18 18 17 14 15 14 13 12 11 10 13 15 15 15 16 17 17 17 16 15 15 14 14 14 14 14 14 13 13 14 14 14 14 13 12 12 10 9 7 8 8 9 8 8 8 9 9 10 9 8 8 7 6 6 6 6 7 6 6 6 7
2 1 0 0 2 1 3 4 7 4 8 8 9 8 7 12 4 7 2 6 2 0 12 11 10 10 3 2 5 2 6 10 12 12 14 16 17 17 17 15 15 15 14 12 10 9 16 15 15 15 16 17 18 17 16 16 15 15 14 14 14 14 14 13 13 14 14 14 13 13 13 12 11 9 8 7 8 9 9 9 9 9 8 8 8 7 6 6 5 5 5 5 5 5 5 6 6
4 1 1 1 3 1 3 7 6 4 10 8 13 9 13 7 7 6 11 2 0 3 11 13 15 11 2 9 5 2 3 11 14 13 13 14 14 15 13 16 16 14 14 12 11 10 10 15 15 16 17 17 17 17 16 16 16 15 15 14 14 13 14 13 13 13 14 13 13 12 11 11 10 9 7 7 7 8 9 9 8 8 8 7 7 6 6 5 4 4 4 4 4 3 4 5 6
3 2 2 2 2 5 5 5 3 8 9 9 13 15 13 8 7 2 2 5 2 7 11 12 9 12 9 10 4 1 6 12 12 13 12 11 13 14 13 16 18 18 14 12 10 10 9 16 15 15 15 16 16 16 16 15 15 15 15 14 13 13 13 13 12 13 13 12 11 11 10 11 10 9 7 6 7 7 8 8 8 8 7 6 6 5 4 3 3 2 2 2 3 3 4 5 5
1 1 2 4 3 4 6 7 4 10 12 7 10 18 16 13 7 6 3 2 5 3 15 21 14 13 8 5 3 2 9 11 13 13 11 10 16 17 15 17 16 17 16 14 11 10 9 10 18 14 13 14 14 13 13 14 15 14 14 13 13 14 14 12 11 11 12 12 11 11 10 10 10 9 8 7 6 7 8 8 8 8 7 6 5 3 2 2 1 1 1 1 2 3 3 4 5
2 1 3 5 6 4 3 4 4 7 9 7 9 10 9 12 7 9 3 6 1 2 6 13 7 13 10 4 3 5 9 9 11 11 9 13 17 16 16 13 16 15 16 14 12 9 9 9 10 15 15 14 13 14 13 14 14 15 14 14 12 13 13 13 12 11 11 11 10 11 10 10 10 9 8 8 6 7 8 7 7 7 6 4 4 3 2 1 0 1 1 2 2 3 4 5 5
3 2 4 5 3 1 3 6 7 9 12 8 8 13 6 11 11 5 2 5 5 4 7 15 17 12 5 4 4 7 8 9 9 8 12 10 15 13 15 15 16 15 13 14 13 11 11 8 8 8 11 16 14 14 13 15 15 14 14 14 14 14 13 12 11 11 11 11 10 10 10 10 10 10 9 8 7 6 7 7 6 6 5 4 3 3 2 1 1 1 1 3 3 4 5 5 6
4 3 3 9 1 5 8 7 6 8 11 4 6 9 14 8 9 10 2 4 5 18 10 12 10 15 10 5 4 5 7 9 9 9 8 12 14 15 16 14 14 13 13 12 12 12 10 9 7 8 10 9 8 12 15 15 15 14 13 13 13 12 11 11 10 10 10 10 10 10 10 10 10 9 9 8 7 6 5 6 6 5 5 4 4 3 2 2 2 2 2 3 3 5 5 5 6
4 2 2 4 7 5 7 9 4 6 12 6 6 8 11 13 12 8 7 4 3 6 12 13 15 13 5 8 4 6 9 11 9 8 12 12 16 16 15 14 13 13 12 11 11 11 11 10 8 7 7 8 8 6 6 11 16 15 14 13 12 12 11 11 10 9 9 10 10 10 10 10 9 10 8 8 6 6 5 5 5 5 4 4 3 3 2 2 2 2 3 4 5 6 6 6 7
2 3 3 5 11 12 6 9 7 10 11 11 9 10 10 13 16 14 7 5 2 3 5 6 3 6 14 11 13 12 13 12 9 11 13 14 13 13 14 13 12 12 11 12 11 10 11 10 8 8 8 8 7 7 7 7 12 14 13 13 12 12 11 11 10 10 10 10 10 10 10 7 7 6 8 5 6 5 5 3 4 3 3 3 2 3 3 3 3 4 5 6 6 6 6 7 8
3 3 4 6 10 13 10 10 7 13 8 12 10 13 12 11 11 7 2 3 7 12 13 8 9 6 8 10 16 16 15 11 11 15 13 10 9 8 9 9 10 9 9 11 11 10 11 11 11 8 8 9 8 7 6 7 9 13 11 12 12 12 11 11 10 10 10 9 8 8 8 4 3 3 3 2 5 3 5 5 5 4 3 3 3 4 4 5 5 6 6 7 7 7 7 8 9
3 5 7 10 9 13 9 13 10 10 10 13 13 10 14 18 13 14 13 6 3 12 12 10 11 8 14 16 17 17 15 13 14 15 11 10 8 8 8 7 10 10 10 9 9 11 11 11 12 11 9 10 8 7 6 5 6 9 5 5 5 7 9 10 7 5 7 3 8 6 4 4 3 3 3 5 3 3 4 7 5 6 5 4 4 5 6 6 7 7 8 7 7 6 7 5 4
7 5 8 13 8 9 7 10 14 12 15 19 14 13 5 6 6 3 12 11 3 5 13 17 14 13 16 18 18 16 16 13 13 13 14 13 10 11 9 6 10 11 11 10 9 11 11 11 11 11 11 10 10 8 7 6 6 4 5 4 5 8 7 6 4 5 3 4 3 3 4 3 3 3 4 5 4 7 6 8 7 7 6 7 6 6 7 8 8 8 8 7 6 6 4 5 4
10 8 11 12 7 5 13 12 15 18 15 17 16 17 13 15 7 8 11 15 6 5 10 13 17 16 17 17 17 17 15 15 13 12 13 12 11 11 9 8 10 9 11 10 10 10 11 10 12 11 12 11 9 7 6 7 6 6 5 4 5 5 5 5 5 4 5 5 5 5 5 3 4 4 7 11 9 6 6 9 9 8 7 6 6 5 6 7 9 8 8 8 5 3 3 5 4
7 11 12 7 7 8 10 14 16 15 14 13 10 7 16 11 16 6 12 16 15 4 7 11 16 18 17 17 18 16 15 15 14 13 11 12 11 9 8 8 10 9 9 9 8 11 12 11 11 11 11 11 10 7 7 7 7 6 6 5 5 5 5 5 5 4 6 6 6 5 5 4 4 4 5 5 5 5 4 3 3 2 1 1 4 2 3 4 4 4 3 4 4 4 4 4 4
5 13 13 10 6 10 10 16 21 15 10 4 18 12 8 8 21 17 19 14 8 6 4 8 18 21 22 19 17 16 16 16 17 14 13 13 13 10 7 6 6 8 7 8 8 11 10 11 12 10 10 10 9 8 8 9 8 7 6 7 6 5 6 6 5 5 6 6 5 5 5 5 5 5 1 1 5 5 4 4 3 3 3 3 3 4 3 3 1 2 2 1 2 3 5 5 3
12 11 13 13 13 10 8 14 14 18 10 18 8 14 16 19 15 12 10 12 7 7 6 10 19 18 19 17 16 14 14 15 16 15 14 12 13 10 11 9 9 9 8 8 6 7 9 10 10 12 11 10 10 9 8 7 7 7 7 7 7 6 6 6 6 5 6 5 6 6 5 5 6 5 2 2 4 3 2 2 3 4 3 2 1 2 1 2 2 3 2 3 3 3 2 3 1
13 13 12 15 12 18 15 15 11 10 16 16 15 10 8 7 13 7 12 15 14 7 9 5 21 16 19 21 20 20 16 17 16 15 15 12 15 13 13 12 9 8 8 8 6 6 9 11 10 13 11 10 9 8 8 7 7 8 8 8 8 7 7 6 6 6 5 6 4 5 5 5 7 6 3 3 2 2 2 0 2 3 2 1 1 2 1 2 3 2 2 3 4 3 1 2 3
18 17 13 12 16 15 14 17 18 16 10 10 12 15 17 17 21 13 13 11 5 8 5 7 22 19 17 16 16 17 16 14 14 12 9 10 12 12 11 10 10 10 10 9 7 7 8 9 11 12 10 11 9 8 9 7 7 8 8 7 7 7 6 6 6 5 6 5 4 3 4 8 6 3 4 3 2 1 1 0 3 2 3 2 2 2 1 1 3 2 1 3 4 5 0 3 0
16 20 17 11 13 18 17 15 16 20 14 13 12 19 11 24 20 19 17 14 5 6 8 8 19 21 17 18 20 15 16 16 14 12 12 11 13 13 12 12 11 12 11 10 8 7 6 10 12 11 10 10 9 8 7 8 7 9 9 8 7 7 7 7 6 6 6 6 5 3 8 7 6 6 4 2 5 3 1 1 2 2 2 2 2 1 1 1 3 3 2 3 4 3 2 2 2
12 19 15 20 18 11 17 23 17 15 19 14 14 15 15 15 15 11 15 12 6 7 10 8 20 18 18 15 15 17 17 18 17 11 10 11 13 14 12 11 13 11 11 11 8 8 8 10 10 10 8 9 7 7 7 6 7 8 8 6 7 7 6 5 6 6 6 6 6 8 7 6 5 4 5 6 3 3 3 2 2 1 2 1 2 1 0 1 1 3 3 4 4 2 0 3 5
17 12 17 17 15 22 16 14 24 17 12 15 15 18 15 11 16 14 10 16 11 10 5 8 13 12 14 13 15 12 15 17 15 14 15 14 13 13 14 12 12 11 12 10 8 7 9 11 10 9 8 8 6 7 6 6 6 6 6 6 7 6 4 4 6 6 5 5 6 8 6 6 5 5 5 3 4 4 4 4 2 1 1 2 1 1 1 1 2 3 5 5 4 3 4 7 7
13 16 15 14 20 16 19 23 16 16 17 16 14 16 16 13 13 12 13 9 16 15 12 7 13 17 18 17 15 12 12 14 15 14 13 12 12 13 15 13 12 12 8 9 9 7 11 10 10 8 8 6 6 6 7 6 6 6 6 6 6 4 5 5 6 6 5 6 9 8 7 5 4 6 5 4 3 4 3 2 2 1 2 1 0 1 1 2 2 2 3 5 0 3 7 7 7
14 13 10 14 12 17 20 14 21 20 10 17 16 15 13 17 15 13 6 6 6 13 14 8 6 10 17 16 14 13 12 13 15 15 13 12 12 13 14 11 11 12 9 8 9 8 7 7 7 7 7 7 6 5 6 7 6 6 6 6 5 5 6 6 6 5 6 8 7 7 7 5 5 4 5 5 6 5 4 5 4 1 0 1 1 0 1 0 2 2 4 5 2 6 6 6 8
12 11 9 9 13 13 13 19 17 22 16 14 12 14 13 15 19 15 7 7 10 13 14 7 6 9 13 12 12 15 15 16 16 14 12 13 13 12 13 10 10 10 8 8 11 9 7 8 7 7 8 7 5 5 8 7 6 6 6 6 6 7 6 6 6 6 6 7 6 7 6 5 5 5 4 5 5 6 6 6 5 5 5 5 4 2 2 1 3 1 2 6 3 6 6 6 8
7 10 14 10 12 13 19 14 20 21 12 20 17 12 13 10 10 15 14 8 9 12 11 10 5 15 14 10 11 12 12 10 13 14 14 14 14 13 14 12 11 11 11 9 9 8 7 7 8 9 9 8 5 5 7 7 6 4 6 6 6 6 6 6 6 6 6 6 6 7 6 5 5 6 4 4 4 4 4 5 3 1 0 1 2 2 4 3 3 3 2 6 5 4 8 7 6
7 11 10 16 14 12 13 24 16 20 19 14 21 12 13 13 13 9 9 12 8 10 11 10 8 13 17 15 13 11 10 7 10 12 13 13 13 13 13 13 11 12 10 10 9 8 7 7 9 11 10 10 6 5 7 5 4 5 5 5 4 5 5 3 6 6 7 6 5 6 6 6 6 6 5 4 4 4 5 5 5 4 3 3 2 2 2 6 5 2 5 5 3 4 6 9 6
8 7 11 14 19 15 14 11 26 20 19 17 16 16 15 6 9 12 7 8 7 10 11 12 11 9 14 14 13 14 14 13 13 13 13 11 12 14 12 13 12 12 10 11 11 10 9 7 8 9 9 10 6 6 6 6 5 5 5 5 4 5 3 2 3 7 7 7 5 6 6 6 5 6 5 5 5 5 4 5 4 4 3 3 4 4 5 5 3 4 4 3 3 6 5 7 7
10 10 11 15 18 22 18 14 14 27 21 15 17 18 19 18 6 9 12 13 10 10 10 12 14 9 12 13 13 14 14 14 13 13 13 12 13 12 12 12 12 12 10 11 10 9 8 6 7 8 9 9 6 6 7 6 6 5 4 4 5 4 3 1 6 7 7 6 6 6 6 5 5 5 5 4 4 4 4 4 4 3 2 3 3 2 3 2 5 5 3 4 5 7 6 6 7
14 14 12 12 15 19 20 17 9 19 22 18 14 16 20 19 17 13 11 19 9 11 9 5 6 16 15 12 14 13 13 15 12 12 10 10 12 13 12 11 11 11 11 10 10 9 8 7 7 8 8 8 6 6 7 6 5 6 6 4 3 3 2 4 6 7 6 6 6 6 6 5 5 5 5 3 4 3 4 4 4 4 2 3 3 4 4 5 6 5 5 5 7 6 5 7 7
14 14 15 15 15 14 14 14 13 8 15 20 16 19 20 17 18 21 16 6 8 8 9 10 12 6 6 10 11 15 15 13 9 10 8 10 12 14 13 13 12 12 11 12 12 10 9 10 9 10 8 8 7 8 7 7 6 5 3 5 5 3 3 5 6 6 6 6 6 6 6 5 5 5 4 4 4 4 4 4 4 3 4 4 3 3 3 4 4 4 4 4 7 8 3 4 5
17 14 13 15 15 13 13 15 17 18 12 11 21 18 19 17 10 13 13 13 9 8 6 6 8 10 10 10 9 14 11 9 16 13 13 14 13 14 13 11 13 14 11 13 13 12 9 10 10 10 7 8 8 8 8 7 5 6 6 6 5 4 5 6 6 6 6 6 6 6 6 5 5 5 5 4 4 5 5 4 4 4 4 4 4 3 4 4 3 2 3 4 5 8 4 5 7
18 14 11 11 13 11 10 15 16 14 14 12 10 20 19 15 15 14 13 13 12 9 9 7 10 8 9 12 11 10 12 14 15 17 16 15 16 16 14 13 14 15 14 14 13 13 10 11 10 8 8 8 8 9 9 7 4 5 5 4 6 4 2 4 6 6 6 6 6 5 5 5 5 5 5 5 5 4 4 4 4 5 3 3 4 4 3 3 2 1 3 4 6 2 4 3 6
15 13 11 10 6 11 10 11 18 19 15 11 14 13 12 16 13 19 17 12 12 8 10 9 9 11 8 7 8 14 17 16 18 17 15 15 17 17 15 14 13 13 13 12 13 14 11 11 10 9 9 9 9 9 8 6 7 6 5 7 5 5 5 6 7 6 6 6 5 5 4 4 4 4 5 4 4 4 5 5 3 3 3 2 3 3 2 1 1 2 2 4 8 5 3 3 3
14 17 13 10 13 12 10 11 8 11 17 18 17 14 9 8 12 10 13 15 16 11 9 8 9 11 10 8 10 17 18 19 20 18 15 14 15 16 16 16 14 13 13 13 13 13 11 14 11 11 10 9 9 9 8 8 7 7 7 7 7 8 7 6 6 5 5 4 5 4 5 5 5 5 5 5 4 4 3 4 4 3 3 3 2 3 3 4 3 2 2 4 7 7 5 3 0
10 16 19 16 15 17 14 10 15 13 15 16 15 10 14 8 14 17 10 13 18 16 14 13 12 9 13 15 13 16 19 20 22 21 19 18 18 15 14 15 15 14 14 13 13 14 13 11 11 11 9 9 10 9 9 9 9 9 9 9 8 7 7 7 7 8 6 6 5 3 4 4 5 4 4 5 5 4 4 3 3 3 4 5 5 4 4 3 2 4 3 4 4 5 6 6 3
10 10 16 22 22 20 14 16 12 10 17 16 15 14 8 5 10 10 12 11 15 15 17 15 13 14 12 12 10 15 17 17 21 21 18 16 15 16 17 17 17 16 14 13 13 13 13 10 11 12 11 10 10 10 10 10 9 9 10 10 9 9 9 5 5 5 6 5 5 4 4 4 3 4 4 4 4 4 3 3 3 4 4 4 3 3 5 5 5 4 3 4 3 6 7 5 5
11 6 14 19 25 22 19 17 12 7 4 14 16 10 8 6 9 12 13 11 17 16 15 15 16 17 17 14 11 14 17 18 17 18 18 19 19 19 21 19 16 15 13 13 14 13 13 11 12 12 11 11 10 10 11 10 10 9 9 9 8 8 9 8 9 7 5 6 6 4 3 3 3 4 5 5 5 3 3 4 4 4 5 4 6 5 4 4 5 4 5 4 5 3 6 7 5
7 11 14 16 20 20 21 16 11 10 8 9 16 17 12 7 5 15 19 18 12 18 22 19 15 16 18 18 15 15 18 19 19 18 20 20 20 20 18 17 15 14 14 15 14 13 10 10 11 10 12 11 10 11 11 10 9 10 10 9 8 6 7 8 8 8 7 7 5 3 3 3 4 4 5 5 4 4 3 3 4 4 4 5 6 5 4 5 5 5 5 6 6 5 4 4 5
12 13 12 12 13 16 19 13 13 11 8 9 11 20 13 12 8 7 17 22 20 18 23 23 15 17 17 16 15 15 17 18 19 22 22 19 18 18 17 16 14 14 14 14 13 10 10 10 12 12 12 11 10 11 11 10 10 10 9 9 10 9 7 7 8 8 8 7 6 5 4 4 5 5 4 4 5 4 4 4 5 5 5 5 6 5 5 5 4 5 5 5 5 7 5 7 6
7 12 15 11 12 14 16 13 11 6 8 11 14 17 18 12 11 12 9 15 19 10 11 15 12 17 18 17 15 16 17 18 16 16 18 18 17 16 16 17 16 13 13 14 12 12 11 12 13 12 12 11 11 12 11 11 10 10 9 9 10 10 10 10 9 9 8 8 7 6 5 5 5 5 5 3 4 5 5 6 6 5 5 5 6 6 5 5 4 5 5 6 6 7 6 7 6
13 8 11 9 11 12 14 12 9 7 7 8 18 18 17 16 9 14 18 10 12 16 14 17 16 16 18 17 15 18 19 19 19 17 16 15 14 13 14 15 15 15 14 14 13 12 12 12 13 13 13 13 11 12 12 11 10 10 8 9 10 11 12 10 11 11 11 10 8 7 6 6 5 5 3 4 4 5 5 5 5 5 5 6 6 5 4 5 5 5 6 6 6 5 5 7 6
13 11 10 11 6 7 9 9 11 8 9 9 9 20 18 16 6 11 19 22 14 11 13 19 21 17 17 19 17 17 18 18 19 17 17 17 18 17 17 16 15 16 16 16 15 13 12 12 14 15 14 13 13 13 13 11 10 9 9 9 10 10 11 11 10 10 10 10 8 8 8 7 6 6 5 5 5 5 6 6 6 6 6 5 5 5 4 4 5 6 6 6 6 6 6 6 7
12 12 10 10 9 8 7 10 5 5 12 14 13 7 13 6 11 10 15 22 20 15 12 11 11 13 15 18 17 18 18 19 18 18 18 19 18 17 19 19 18 17 17 16 15 14 12 12 14 15 14 14 13 13 12 12 10 10 9 9 10 10 10 10 9 10 9 8 7 8 8 8 7 6 6 6 6 6 6 5 5 5 5 5 6 6 5 5 6 7 6 7 6 5 6 7 7
11 9 12 8 7 6 7 7 13 11 7 10 14 9 3 11 3 10 9 8 8 9 10 8 9 12 14 18 20 23 22 19 18 18 19 20 20 20 18 18 17 17 17 15 14 13 13 13 15 15 15 14 14 14 12 12 10 10 9 10 10 9 10 9 8 8 8 9 8 8 7 8 8 7 6 7 5 6 7 6 6 6 5 5 5 5 6 6 6 6 6 7 6 5 7 7 6
7 9 9 12 11 4 4 4 7 11 11 8 9 5 3 7 5 10 7 12 11 7 10 10 15 8 13 16 20 20 19 19 19 19 20 21 21 19 17 17 16 16 17 14 15 14 14 14 15 15 16 15 14 13 12 11 10 9 10 12 11 10 9 8 7 7 7 9 9 9 9 9 7 7 7 7 7 8 7 6 5 5 5 6 6 6 7 6 6 7 7 7 7 4 7 7 6
2 10 13 10 7 10 6 6 3 6 10 10 2 4 10 3 2 5 9 6 9 13 10 12 14 13 15 15 17 16 17 18 17 18 20 22 20 20 19 18 16 15 15 16 17 17 17 15 15 15 14 13 13 13 12 11 10 9 11 12 12 11 11 10 10 10 10 9 8 8 9 8 8 8 7 8 8 7 7 7 6 6 6 5 6 7 7 7 6 7 7 7 7 6 7 6 6
6 4 8 8 10 11 8 4 4 3 9 8 7 7 5 11 7 4 6 6 6 6 9 12 16 16 15 18 18 17 17 18 19 20 23 23 21 21 18 17 18 19 19 17 17 15 13 13 15 15 14 15 14 14 13 12 11 11 11 13 12 12 10 10 10 10 9 9 7 8 8 8 9 9 9 7 8 8 7 7 7 6 5 6 7 6 6 6 6 6 6 6 6 6 6 5 5
7 11 5 9 8 14 8 5 6 5 4 5 13 11 8 9 5 4 8 8 9 11 7 10 12 16 19 19 20 19 20 18 17 18 19 19 18 18 18 18 18 17 16 14 14 13 12 11 12 14 15 15 14 12 11 10 10 9 9 12 12 11 10 10 10 10 9 8 8 9 9 9 9 9 9 9 8 8 7 7 6 5 6 7 6 6 6 6 6 7 6 7 6 6 7 7 6
14 12 14 15 9 6 9 5 2 1 2 6 10 19 7 5 7 7 8 10 12 12 8 12 15 14 15 17 18 18 17 16 17 18 19 20 20 19 19 18 17 16 14 12 13 12 14 13 13 13 12 12 12 13 12 11 11 10 10 10 10 10 10 11 11 10 9 8 9 10 10 10 9 8 9 9 8 8 8 7 6 6 6 6 7 6 6 6 7 6 6 7 6 7 7 6 6
7 8 8 6 6 0 2 2 6 3 2 4 2 11 5 4 6 9 8 9 17 10 12 13 11 14 16 16 18 17 16 16 17 18 19 20 18 17 17 16 16 14 13 12 13 15 15 13 13 13 14 15 14 12 12 11 11 11 12 13 11 10 10 10 11 9 9 9 9 9 9 8 8 9 9 9 9 9 8 7 6 6 7 7 7 7 6 6 6 6 6 7 6 6 7 6 6
8 5 5 5 6 6 10 6 6 9 6 3 4 4 2 6 2 5 10 7 9 9 9 8 7 15 19 17 17 16 14 16 18 18 18 18 18 17 15 13 12 13 13 14 12 12 12 13 12 13 12 13 14 13 12 12 11 11 13 12 11 9 10 10 11 9 10 9 9 9 8 8 9 9 9 10 10 8 7 7 6 6 7 6 7 7 6 6 6 7 6 5 6 7 6 6 5
Wind_Direction
323 62 108 158 140 138 143 205 28 215 9 248 277 243 262 248 137 126 126 132 110 267 83 39 151 133 137 115 71 65 35 59 334 151 186 135 102 103 109 116 119 120 124 131 131 132 130 130 130 129 128 125 124 124 124 125 125 123 118 114 115 116 118 118 114 113 109 106 103 96 93 93 90 86 93 93 91 103 122 114 112 116 117 117 114 109 107 108 109 108 105 99 90 81 72 64 56
313 336 150 160 163 125 265 168 203 318 290 308 256 274 241 271 167 164 172 140 156 138 148 124 64 108 121 118 147 123 52 53 55 88 79 101 98 105 115 118 125 123 125 127 128 129 132 131 130 131 129 128 126 126 128 127 128 127 123 119 120 122 122 120 118 115 112 109 106 104 94 89 89 89 88 91 97 107 72 112 109 110 111 112 110 111 111 111 110 106 103 99 91 81 69 57 44
311 342 20 168 136 173 299 239 284 289 304 274 282 241 350 271 218 190 140 132 137 136 127 124 144 160 105 90 58 73 132 88 83 80 98 118 104 118 117 116 117 122 125 129 129 130 129 132 133 132 131 129 129 130 129 130 131 128 126 125 125 126 126 123 118 119 117 111 104 101 97 94 92 93 91 99 112 108 89 98 104 105 111 114 112 112 115 112 110 104 99 92 86 78 66 53 41
291 241 178 29 1 169 255 225 200 243 272 257 293 286 251 256 348 33 112 131 150 130 135 107 71 58 103 96 104 82 85 100 107 128 125 132 121 125 118 121 122 125 126 131 129 130 130 137 134 133 132 131 132 131 132 132 132 130 129 129 128 131 128 123 122 123 122 117 110 107 104 97 91 89 93 90 91 87 61 101 108 117 119 116 112 109 109 109 103 98 88 79 73 66 58 49 38
244 265 144 143 106 298 290 244 243 266 270 231 248 273 273 297 316 342 157 122 98 105 89 106 92 21 69 73 80 99 116 115 118 116 101 87 114 123 126 125 128 129 131 129 126 128 136 138 135 134 134 134 133 133 133 135 135 134 134 134 133 132 131 128 127 126 121 117 114 110 108 103 98 94 92 95 90 68 65 76 97 106 117 110 105 106 102 101 95 87 78 67 58 54 47 41 34
282 276 183 122 183 223 328 337 313 284 256 252 278 311 1 301 293 294 207 114 116 103 94 113 132 118 55 54 24 95 304 109 140 130 114 123 124 132 130 128 128 127 128 122 121 129 138 137 135 136 135 135 135 135 136 137 138 139 138 136 136 134 131 130 128 125 122 120 116 114 110 109 105 102 100 102 101 93 87 87 98 105 109 106 104 105 102 95 92 82 73 60 51 43 38 28 23
322 358 335 43 325 133 209 261 272 274 274 294 296 318 271 254 270 345 19 20 34 83 104 107 101 95 82 119 65 32 359 180 110 122 115 131 131 130 130 129 126 120 113 115 123 133 136 136 136 137 137 138 138 139 140 140 142 141 140 139 137 137 135 134 131 128 125 123 121 117 114 111 107 103 104 111 113 113 109 110 106 105 108 112 114 111 108 103 93 78 61 55 50 40 31 23 12
198 138 252 57 265 331 278 253 254 262 286 310 299 293 281 261 327 305 15 84 348 20 101 99 96 91 105 92 112 320 3 85 110 114 113 128 131 130 130 128 117 112 114 119 125 130 138 137 139 139 141 142 143 143 142 144 143 141 140 139 138 139 137 136 135 129 125 123 121 119 115 113 110 107 106 114 126 122 122 124 120 119 119 115 118 117 113 102 89 78 63 59 51 38 24 16 6
342 140 267 226 277 322 286 261 268 271 281 304 302 306 292 303 303 297 294 120 339 82 111 126 122 102 225 82 90 223 67 100 108 110 115 122 128 126 127 127 119 118 120 123 128 131 134 144 142 144 145 146 146 145 145 145 144 141 140 140 139 138 138 137 134 131 128 127 126 125 122 118 113 111 114 118 131 133 124 125 128 126 121 117 119 125 107 104 101 91 80 64 51 31 16 6 0
340 143 290 175 160 262 253 283 324 271 277 278 301 305 310 298 268 13 35 358 197 116 93 107 85 112 119 91 92 13 109 110 110 110 118 128 120 116 105 102 112 116 117 124 128 133 144 145 146 146 148 148 147 146 146 146 144 142 140 140 139 139 136 136 135 136 134 131 128 126 125 120 116 119 119 127 134 129 131 131 129 134 130 131 132 113 102 106 108 97 95 71 45 22 8 352 349
315 340 184 265 245 275 269 270 273 288 282 297 300 292 297 280 303 321 357 112 164 172 94 97 97 115 106 98 71 177 118 119 117 126 141 124 102 97 104 109 114 122 128 129 133 138 145 148 147 148 147 147 146 144 143 145 143 139 137 139 140 139 137 132 128 132 134 134 133 129 130 125 123 127 128 130 141 146 138 137 141 131 139 130 121 129 130 118 112 90 48 55 19 358 343 339 334
279 195 221 214 222 186 237 256 256 288 290 309 289 276 292 313 324 285 254 265 260 179 150 119 123 120 88 111 132 137 122 121 126 137 128 112 106 112 111 115 120 124 129 134 136 139 143 147 145 150 148 146 144 143 144 143 140 138 137 140 139 139 138 139 128 123 127 131 132 131 135 134 133 134 136 137 141 149 149 144 142 147 134 137 140 164 168 162 224 331 344 326 327 326 322 322 325
204 224 201 228 204 211 289 301 298 280 281 278 287 295 303 299 297 276 222 275 332 8 68 103 133 106 132 128 155 132 123 127 132 128 116 122 114 113 117 120 124 128 131 133 137 143 143 141 147 149 150 146 145 145 142 142 142 139 140 142 142 142 143 139 138 139 135 135 133 138 141 141 141 142 146 143 145 158 146 154 151 155 163 157 177 177 187 193 233 263 296 309 305 316 317 307 306
224 192 171 248 153 242 245 259 278 287 277 267 263 281 297 292 305 293 333 328 46 80 121 120 104 97 86 97 105 121 129 129 124 116 106 103 113 120 120 122 123 127 132 138 143 143 142 145 148 149 150 142 147 145 144 144 145 144 142 144 145 141 136 135 137 140 140 140 146 149 148 150 144 147 146 151 158 151 157 152 157 160 165 177 179 188 194 209 218 254 283 282 295 288 286 297 305
242 213 222 230 234 248 224 243 219 269 273 301 299 306 307 299 288 311 281 233 141 132 146 124 134 104 186 141 163 152 143 135 126 117 105 105 103 116 122 126 127 132 139 142 144 147 146 148 151 149 146 146 144 140 141 148 146 147 147 148 143 140 139 142 146 144 147 151 155 157 157 153 151 149 155 157 162 164 159 160 163 161 172 172 182 194 215 212 227 256 266 267 265 276 286 294 296
217 257 220 216 220 224 219 234 239 266 265 286 299 285 278 272 281 286 268 254 163 32 46 51 57 113 165 149 156 145 137 136 132 106 108 105 108 118 127 131 134 140 142 146 152 152 148 152 150 156 154 153 149 147 145 147 152 151 152 147 144 143 146 148 148 150 154 157 160 159 156 153 150 150 155 162 172 172 180 163 176 172 177 194 207 217 224 227 235 242 246 258 267 272 279 282 286
266 236 234 226 228 209 199 227 219 236 269 275 266 275 278 282 282 268 309 129 116 80 90 90 107 108 121 144 140 133 134 132 115 112 108 110 118 127 131 135 137 138 145 156 159 158 155 152 156 160 163 156 151 145 143 144 155 155 152 148 148 148 150 150 150 155 159 163 157 156 151 123 124 122 146 136 185 182 199 200 196 199 213 225 233 242 240 246 243 251 251 258 264 272 280 287 291
253 234 224 237 222 214 181 215 211 245 254 261 256 250 260 252 248 284 305 288 192 129 121 110 92 100 112 121 128 133 137 128 125 122 126 128 134 141 151 147 145 150 156 160 166 159 154 158 162 165 162 159 152 146 144 146 155 151 147 148 145 148 150 151 154 156 159 152 162 157 141 153 150 145 152 176 180 193 209 211 212 198 213 232 245 252 257 257 258 258 263 268 277 286 293 301 299
216 238 232 237 210 219 182 201 211 221 223 241 250 259 333 303 325 195 271 276 234 130 125 119 109 105 114 123 131 136 143 130 131 132 140 141 149 157 166 151 151 154 160 162 164 163 160 163 167 166 162 160 152 149 146 146 145 141 147 145 151 150 159 160 164 164 139 158 147 152 161 160 154 166 162 192 171 197 206 208 208 206 210 224 240 255 265 271 274 277 280 285 285 289 288 277 273
214 232 235 236 229 201 195 212 212 212 216 229 238 258 294 300 290 317 273 279 270 221 120 119 123 131 131 134 138 145 146 136 135 140 145 150 156 162 170 159 156 159 156 164 161 161 165 167 170 164 161 153 152 149 145 148 154 154 157 158 156 160 163 167 181 167 164 169 165 166 170 182 158 166 188 195 187 188 202 204 207 206 213 228 243 257 274 280 276 277 279 280 280 269 267 261 261
194 226 233 232 217 241 195 212 240 219 203 206 228 217 268 301 293 263 268 257 264 240 174 134 144 135 135 145 148 148 145 141 141 147 155 160 164 169 174 165 159 151 156 161 146 161 169 167 164 160 155 151 149 148 153 158 166 159 164 158 164 174 170 179 189 185 177 172 182 173 173 180 165 163 194 202 152 170 172 173 206 197 192 261 256 259 265 267 260 257 264 268 263 258 253 262 258
225 230 234 235 229 227 222 215 227 233 245 240 187 171 206 257 264 256 230 229 236 200 170 136 152 147 150 156 154 149 150 150 151 156 167 167 169 167 158 151 129 138 150 159 156 163 169 163 158 154 152 155 150 155 163 171 166 162 163 162 170 183 179 190 197 194 186 179 177 183 166 169 138 133 126 160 142 144 152 166 181 185 192 215 213 222 242 273 277 222 260 304 255 221 236 252 229
228 234 237 226 233 249 218 237 228 225 191 238 232 170 179 211 242 241 226 245 234 203 170 167 148 157 152 141 143 148 156 157 157 165 174 167 165 164 154 157 147 150 156 170 165 163 161 164 149 149 152 154 157 162 164 174 169 167 161 165 170 183 189 193 202 194 193 176 174 179 159 139 113 80 266 44 44 40 129 168 182 185 194 158 60 138 244 358 340 310 329 308 287 253 231 227 246
229 232 222 229 225 230 242 254 257 207 202 216 229 210 242 257 233 223 227 234 233 203 165 180 152 153 143 149 155 157 163 166 169 172 177 162 164 163 158 160 157 154 156 172 174 166 157 162 148 151 153 151 165 163 169 184 168 161 164 169 171 184 182 196 209 189 176 162 146 142 143 115 102 171 175 65 37 5 30 186 142 109 101 108 116 86 61 359 320 318 357 313 294 290 12 257 171
223 235 223 221 224 233 230 244 257 257 247 230 246 233 203 240 267 275 265 230 218 203 173 125 148 145 149 147 154 155 162 165 170 172 170 148 159 157 156 155 155 157 163 174 175 169 161 155 149 150 153 154 167 168 177 187 166 159 165 171 175 182 185 197 198 172 148 146 145 136 114 97 123 160 109 102 143 127 249 330 63 62 58 23 66 59 84 343 307 343 317 285 283 287 27 281 66
220 225 226 231 218 219 231 243 237 253 252 244 246 270 219 195 227 261 258 259 205 210 210 156 152 149 153 160 160 157 161 169 167 167 164 147 150 151 159 158 159 164 172 175 165 174 156 151 150 154 159 163 167 172 178 164 164 154 167 176 175 175 188 183 169 150 140 138 143 123 91 126 143 156 128 160 170 164 118 48 81 79 79 32 49 76 57 346 319 328 287 247 267 259 248 180 121
216 228 225 221 237 239 209 227 241 224 248 244 247 238 253 204 190 222 255 256 241 226 218 179 158 161 159 164 156 160 162 163 169 158 145 141 151 155 162 161 164 167 167 176 167 168 150 150 151 157 163 172 154 168 168 148 152 145 163 152 166 175 183 158 134 146 136 138 157 105 120 131 141 121 142 177 155 132 109 102 54 88 76 50 56 313 94 328 325 268 274 247 237 257 250 98 83
247 240 227 234 226 231 246 228 227 236 242 251 243 248 244 236 203 214 210 216 241 246 218 198 155 158 158 153 157 170 170 165 156 156 158 152 157 159 164 163 170 162 165 171 169 154 148 151 152 159 157 174 144 159 167 139 155 148 156 138 163 175 157 136 132 135 142 144 99 104 136 139 144 140 168 157 140 136 150 124 133 101 104 72 45 312 344 311 246 269 268 272 229 227 102 79 77
256 243 245 226 230 236 220 234 241 216 222 232 251 264 252 238 239 223 211 214 203 221 231 218 181 159 161 158 160 168 175 165 156 162 167 157 154 155 161 165 161 164 165 165 167 148 150 151 150 155 156 156 150 162 164 145 154 149 151 157 163 161 146 143 130 133 137 111 110 128 128 141 118 143 169 142 146 155 150 126 67 10 56 78 87 251 300 271 292 337 297 275 40 98 86 84 82
261 250 241 242 239 231 225 226 230 237 221 209 213 243 245 245 241 239 225 183 193 216 227 186 213 142 160 159 164 169 165 156 161 167 164 155 155 156 155 165 156 160 159 159 156 154 150 145 145 151 153 152 165 153 153 145 162 155 155 161 154 149 153 142 144 139 131 112 120 131 132 138 135 157 148 139 150 151 148 140 137 138 110 242 145 212 156 39 344 338 305 321 33 93 102 98 88
246 241 243 228 226 235 217 220 221 228 224 227 201 232 233 235 241 240 236 213 180 206 225 203 196 125 163 157 158 159 168 167 167 164 156 154 155 153 151 154 148 151 154 152 157 157 139 146 143 147 159 152 155 150 152 149 166 147 159 152 152 149 147 146 139 138 123 126 132 123 134 135 150 141 148 152 158 151 141 135 149 168 179 197 142 168 172 182 224 262 308 32 25 89 80 79 89
272 212 224 222 224 222 230 225 216 223 216 216 224 235 236 223 227 232 229 227 193 196 201 207 158 135 153 153 153 157 167 172 162 161 161 157 154 154 152 152 143 151 155 152 150 146 141 149 143 147 159 158 156 161 156 149 164 149 158 148 151 141 142 135 138 140 118 121 116 123 135 134 142 146 155 149 139 132 129 129 137 132 359 17 52 60 49 335 282 213 91 61 55 71 101 86 88
254 240 203 217 217 224 221 222 233 220 223 213 213 232 239 233 229 234 225 213 188 187 197 205 168 150 158 157 158 160 154 153 159 164 166 155 157 153 150 149 141 150 149 150 150 151 146 152 144 150 162 168 162 162 149 151 112 91 109 110 112 108 93 123 145 106 106 111 125 136 134 143 148 143 148 149 144 148 140 138 152 152 157 137 113 116 151 232 206 102 68 80 97 100 101 104 89
246 227 220 207 216 213 228 200 220 232 218 216 213 226 234 236 218 230 246 235 182 202 199 190 168 163 154 160 160 161 160 161 167 171 167 156 153 150 148 145 138 146 146 147 155 159 158 157 152 152 163 169 159 157 144 120 109 104 91 102 97 91 95 61 81 115 117 127 128 125 134 145 144 137 143 152 153 158 146 139 138 135 142 141 149 156 207 198 127 90 57 58 81 112 117 111 106
219 214 212 210 215 217 215 211 197 220 227 225 212 227 239 241 227 209 215 244 220 199 200 181 171 173 162 159 168 165 161 163 173 170 162 149 145 145 144 138 136 142 147 148 154 156 151 157 149 158 163 170 150 144 116 111 102 93 86 84 86 93 85 64 101 105 120 125 127 125 127 140 146 141 145 153 146 139 132 129 123 129 137 145 137 169 229 166 95 84 80 63 81 111 125 113 114
232 228 226 219 213 213 218 212 221 201 225 227 224 221 226 233 236 230 220 223 185 187 195 239 219 176 175 168 164 166 166 169 164 159 143 141 145 145 144 141 137 142 147 151 153 154 154 158 155 164 169 164 139 131 125 121 115 123 119 86 90 106 94 88 108 115 122 124 125 122 128 137 141 137 136 141 138 132 133 134 125 133 163 154 157 178 179 142 125 102 96 101 100 86 87 115 114
254 249 240 231 224 228 220 217 216 214 211 228 220 228 224 222 222 228 220 217 195 204 207 189 185 206 185 168 154 170 167 165 134 114 108 140 149 152 148 146 144 144 149 154 158 162 160 165 159 175 170 161 149 149 149 152 145 133 113 149 152 158 122 124 121 124 120 126 128 129 133 142 142 133 136 137 139 138 137 144 142 168 183 185 186 142 127 116 119 122 126 129 116 111 96 107 112
249 259 253 238 230 228 216 213 204 215 225 215 220 226 226 225 211 216 218 236 230 210 214 185 195 178 177 177 166 167 159 100 120 125 137 150 155 151 147 146 149 153 159 159 164 169 162 169 170 173 163 165 164 163 162 164 165 163 149 162 143 142 132 131 124 120 121 124 134 136 141 147 145 138 141 144 143 142 153 161 165 182 187 167 139 116 97 94 93 86 126 112 135 131 140 149 143
248 250 257 268 240 235 224 214 202 215 227 238 212 222 235 232 229 227 222 223 240 227 185 156 156 186 187 181 176 143 126 140 140 149 153 156 154 152 152 154 162 163 163 165 164 164 164 174 179 166 167 168 170 168 166 166 152 142 136 144 139 118 99 123 118 118 114 123 133 141 138 138 146 153 153 155 158 168 168 150 149 132 138 127 111 99 108 96 92 141 174 133 128 120 114 162 162
238 246 250 247 275 222 226 224 198 205 217 228 232 228 233 234 222 221 217 227 234 213 184 167 148 160 173 177 152 142 145 145 150 160 162 160 159 158 157 161 159 161 164 165 164 168 172 177 177 162 171 170 172 178 171 155 150 137 110 117 104 107 127 110 100 103 101 103 108 113 114 138 133 133 136 134 123 123 134 139 130 129 131 109 109 123 95 79 110 178 178 118 133 136 138 184 207
230 243 251 253 249 254 235 229 230 220 229 218 226 237 246 203 202 216 217 219 223 204 190 193 179 168 179 182 137 148 153 154 159 165 163 164 158 160 164 166 159 162 170 168 167 172 180 182 169 167 167 169 177 176 163 147 137 116 110 96 94 94 82 96 108 108 115 109 98 88 112 115 118 113 116 116 109 106 102 116 134 137 105 79 99 128 146 172 166 130 143 129 147 152 167 135 48
236 233 241 250 258 256 257 255 207 208 233 227 195 219 232 205 214 212 203 220 219 203 192 192 197 201 182 188 166 161 158 161 162 166 168 172 167 157 161 166 166 167 171 172 170 175 179 175 163 168 159 169 175 173 159 155 158 145 141 140 140 138 138 144 147 147 138 135 139 127 100 116 121 122 104 118 119 112 105 105 98 130 100 92 88 122 151 113 83 142 144 134 128 159 150 130 142
234 228 229 244 250 260 267 258 223 203 206 219 214 218 224 217 211 217 226 206 212 213 206 195 194 199 208 204 166 162 160 169 166 166 167 168 165 161 169 173 174 173 172 165 169 178 179 166 169 164 164 170 172 173 165 161 156 158 159 161 156 155 150 148 130 132 132 129 127 125 136 124 133 128 116 104 108 110 116 101 92 103 109 103 84 80 73 91 90 68 68 86 115 132 125 133 146
238 230 227 235 240 249 260 263 263 252 218 211 224 210 225 242 221 217 225 215 214 216 219 213 203 200 202 201 185 164 165 164 165 164 169 171 170 169 174 179 177 173 161 163 172 180 177 164 164 164 163 168 173 172 173 170 160 161 160 157 156 156 160 152 146 145 136 135 136 149 143 154 146 123 121 115 114 113 97 92 89 104 108 95 85 85 100 102 90 69 74 90 75 88 128 135 153
230 226 233 229 235 244 252 257 261 265 227 223 200 211 233 218 234 205 217 232 216 216 217 217 205 204 200 198 191 163 169 165 164 167 174 175 175 178 171 172 172 159 163 169 176 180 167 159 162 159 164 168 171 171 171 171 164 163 161 156 150 155 148 142 144 147 145 141 137 152 151 161 128 104 124 131 123 122 119 103 109 107 106 103 101 95 85 86 96 99 83 73 81 72 85 116 113
232 247 245 236 240 244 250 250 252 250 263 231 205 202 226 229 210 219 203 217 223 211 211 214 199 196 194 195 191 163 170 170 173 173 174 174 174 174 171 161 157 165 167 167 173 168 160 162 166 163 168 171 167 168 167 167 164 161 162 160 152 150 143 134 142 147 145 147 151 164 165 141 129 121 115 110 132 130 106 93 79 86 96 104 102 104 100 91 90 94 102 103 97 89 82 95 109
237 223 247 245 232 239 248 244 237 264 244 247 223 205 208 229 214 207 204 209 214 199 205 205 188 194 190 191 175 164 169 169 174 172 170 170 171 162 155 163 165 160 165 170 172 169 166 169 169 167 170 170 167 166 165 168 166 168 165 161 156 148 144 143 147 151 151 151 161 167 153 143 124 127 120 99 118 109 113 105 103 98 105 106 102 103 110 113 108 105 104 96 93 101 103 101 93
220 218 226 238 244 233 235 238 226 223 248 240 223 218 198 221 208 209 218 221 208 198 183 198 200 187 191 190 174 167 164 168 169 167 164 154 151 156 160 162 166 166 163 171 178 171 169 171 169 167 171 174 168 166 167 167 167 170 168 161 156 154 152 154 156 158 159 160 165 160 150 133 125 129 120 114 110 105 102 107 111 107 107 109 113 122 124 119 118 110 100 99 94 92 92 91 92
214 219 223 220 219 200 218 238 227 212 225 240 249 214 227 228 209 197 205 216 216 200 181 187 196 193 188 183 165 166 164 166 166 165 158 158 159 162 168 168 166 171 175 175 174 170 168 167 169 170 174 172 171 169 172 169 168 171 170 161 156 157 156 155 157 157 163 166 163 154 149 144 144 139 152 126 132 118 107 105 108 115 118 120 125 123 125 112 106 100 99 95 95 92 96 98 91
208 214 213 216 214 207 209 225 252 232 235 233 244 227 243 232 235 197 200 202 198 173 170 164 177 196 187 182 163 162 167 168 167 162 160 160 164 169 171 170 172 176 179 176 172 169 168 167 171 174 173 170 170 173 174 172 170 171 168 157 156 155 156 156 159 164 167 165 158 154 152 151 154 165 157 141 152 126 114 119 113 115 122 123 126 125 119 114 108 106 103 100 97 102 93 93 99
210 211 221 222 229 197 207 204 216 218 230 225 229 252 203 215 259 186 185 189 177 167 162 178 198 180 188 182 173 168 169 168 163 161 161 164 168 171 172 172 174 177 179 175 172 172 166 167 176 175 169 171 172 175 175 174 172 172 158 155 153 156 156 159 165 166 162 161 156 155 155 155 158 168 145 150 137 117 122 122 121 120 122 122 118 115 110 104 104 101 100 101 93 91 94 94 91
242 211 226 229 221 252 242 188 203 219 219 233 221 219 162 211 225 189 170 157 168 181 182 181 207 194 175 180 180 171 168 165 167 163 160 166 170 172 171 173 175 175 177 176 174 171 173 176 178 174 173 172 172 172 178 175 174 170 154 155 157 158 158 158 158 159 159 159 158 158 160 159 159 149 145 129 122 125 126 122 121 125 125 121 117 115 115 111 109 106 104 105 102 101 97 91 95
256 212 221 226 233 245 266 279 239 175 222 237 257 234 258 315 262 175 154 152 180 176 206 205 207 216 167 180 179 172 172 169 166 162 162 170 171 172 172 173 171 174 177 179 177 177 178 171 173 173 173 174 174 176 176 175 169 165 158 156 159 161 162 162 163 162 161 161 158 157 156 155 141 140 137 128 130 128 128 129 130 131 128 123 115 115 116 117 115 113 114 111 110 107 99 100 96
270 283 230 226 234 251 241 193 229 216 203 214 214 235 233 220 254 250 179 189 212 213 210 197 217 218 168 179 178 171 173 175 169 165 166 169 171 170 169 171 171 177 181 179 177 176 173 168 171 173 173 177 179 178 177 174 168 165 159 160 163 164 162 160 160 161 162 160 155 150 144 140 144 144 137 137 132 132 134 135 137 140 134 124 125 122 121 121 116 112 116 114 119 111 102 91 88
253 247 280 227 184 223 233 253 221 215 212 180 223 233 240 199 225 213 199 196 227 225 211 222 220 194 186 180 176 172 169 169 162 159 162 166 168 169 168 170 175 177 177 177 170 166 168 168 167 174 178 180 179 178 176 172 166 166 162 163 163 162 160 160 161 160 160 155 151 150 146 143 140 139 134 135 134 132 134 139 140 141 135 130 125 125 122 118 119 117 116 113 107 104 103 102 97
251 256 269 274 276 221 210 207 43 15 189 190 206 212 243 204 198 182 215 203 217 224 223 229 230 169 172 170 167 167 164 160 160 161 163 168 169 167 165 165 167 169 170 168 166 166 172 173 171 175 171 172 176 179 174 169 165 163 162 161 163 161 163 162 162 160 160 151 152 148 144 144 145 138 136 135 133 134 139 138 140 139 133 130 128 126 123 123 120 122 121 116 115 110 108 107 106
248 236 251 254 249 109 245 185 202 172 223 176 180 198 230 260 204 186 215 206 219 195 204 213 196 167 163 164 163 164 163 161 160 161 163 164 164 162 163 165 166 164 164 162 168 173 174 173 176 175 175 176 179 176 170 166 163 164 161 165 165 163 164 158 156 156 151 147 150 147 147 146 136 139 137 133 133 136 139 140 140 138 135 134 130 130 129 128 125 123 121 121 119 114 113 113 110
260 258 246 254 235 199 190 222 226 238 229 208 208 239 256 250 252 196 231 217 209 185 193 176 176 171 160 161 164 160 163 161 157 159 159 160 158 158 156 155 156 160 165 169 171 169 172 178 177 176 176 179 176 176 172 164 164 165 163 164 163 163 159 155 153 148 147 148 146 144 145 139 138 141 137 137 137 138 141 142 139 140 137 133 134 134 136 130 130 128 127 123 120 120 117 116 114